owner,sensor,date,latitude,longitude,dew_point_temperature,qcFlag 
ADCP,ioos:station:wmo:42364:1,2010-01-17T21:30:00Z,29.0600,-88.0900,8.9,11111222 
ADCP,ioos:station:wmo:42364:1,2010-01-17T21:45:00Z,29.0600,-88.0900,8.3,11111222 
ADCP,ioos:station:wmo:42364:1,2010-01-17T22:00:00Z,29.0600,-88.0900,8.9,11111222 
ADCP,ioos:station:wmo:42364:1,2010-01-17T22:15:00Z,29.0600,-88.0900,8.3,11111222 
ADCP,ioos:station:wmo:42364:1,2010-01-17T22:30:00Z,29.0600,-88.0900,8.9,11111222 
ADCP,ioos:station:wmo:42364:1,2010-01-17T22:45:00Z,29.0600,-88.0900,8.9,11111222 
ADCP,ioos:station:wmo:42364:1,2010-01-17T23:00:00Z,29.0600,-88.0900,8.9,11111222 
ADCP,ioos:station:wmo:42364:1,2010-01-17T23:15:00Z,29.0600,-88.0900,8.9,11111222 
ADCP,ioos:station:wmo:42364:1,2010-01-17T23:30:00Z,29.0600,-88.0900,8.9,11111222 
ADCP,ioos:station:wmo:42364:1,2010-01-17T23:45:00Z,29.0600,-88.0900,8.9,11111222 
ADCP,ioos:station:wmo:42364:1,2010-01-18T00:00:00Z,29.0600,-88.0900,9.4,11111222 
ADCP,ioos:station:wmo:42364:1,2010-01-18T00:15:00Z,29.0600,-88.0900,9.4,11111222 
ADCP,ioos:station:wmo:42364:1,2010-01-18T00:30:00Z,29.0600,-88.0900,9.4,11111222 
ADCP,ioos:station:wmo:42364:1,2010-01-18T00:45:00Z,29.0600,-88.0900,9.4,11111222 
ADCP,ioos:station:wmo:42364:1,2010-01-18T01:00:00Z,29.0600,-88.0900,9.4,11111222 
ADCP,ioos:station:wmo:42364:1,2010-01-18T01:15:00Z,29.0600,-88.0900,9.4,11111222 
ADCP,ioos:station:wmo:42364:1,2010-01-18T01:30:00Z,29.0600,-88.0900,9.4,11111222 
ADCP,ioos:station:wmo:42364:1,2010-01-18T01:45:00Z,29.0600,-88.0900,9.4,11111222 
ADCP,ioos:station:wmo:42364:1,2010-01-18T02:00:00Z,29.0600,-88.0900,9.4,11111222 
ADCP,ioos:station:wmo:42364:1,2010-01-18T02:15:00Z,29.0600,-88.0900,9.4,11111222 
ADCP,ioos:station:wmo:42364:1,2010-01-18T02:30:00Z,29.0600,-88.0900,9.4,11111222 
ADCP,ioos:station:wmo:42364:1,2010-01-18T02:45:00Z,29.0600,-88.0900,9.4,11111222 
ADCP,ioos:station:wmo:42364:1,2010-01-18T03:00:00Z,29.0600,-88.0900,9.4,11111222 
ADCP,ioos:station:wmo:42364:1,2010-01-18T03:15:00Z,29.0600,-88.0900,9.4,11111222 
ADCP,ioos:station:wmo:42364:1,2010-01-18T03:30:00Z,29.0600,-88.0900,9.4,11111222 
ADCP,ioos:station:wmo:42364:1,2010-01-18T03:45:00Z,29.0600,-88.0900,10.0,11111222 
ADCP,ioos:station:wmo:42364:1,2010-01-18T04:15:00Z,29.0600,-88.0900,9.4,11111222 
ADCP,ioos:station:wmo:42364:1,2010-01-18T04:30:00Z,29.0600,-88.0900,9.4,11111222 
ADCP,ioos:station:wmo:42364:1,2010-01-18T04:45:00Z,29.0600,-88.0900,8.9,11111222 
ADCP,ioos:station:wmo:42364:1,2010-01-18T05:00:00Z,29.0600,-88.0900,8.9,11111222 
ADCP,ioos:station:wmo:42364:1,2010-01-18T05:15:00Z,29.0600,-88.0900,8.9,11111222 
ADCP,ioos:station:wmo:42364:1,2010-01-18T05:30:00Z,29.0600,-88.0900,8.9,11111222 
ADCP,ioos:station:wmo:42364:1,2010-01-18T05:45:00Z,29.0600,-88.0900,8.9,11111222 
ADCP,ioos:station:wmo:42364:1,2010-01-18T06:00:00Z,29.0600,-88.0900,8.9,11111222 
ADCP,ioos:station:wmo:42364:1,2010-01-18T06:15:00Z,29.0600,-88.0900,8.9,11111222 
ADCP,ioos:station:wmo:42364:1,2010-01-18T06:30:00Z,29.0600,-88.0900,8.3,11111222 
ADCP,ioos:station:wmo:42364:1,2010-01-18T06:45:00Z,29.0600,-88.0900,8.9,11111222 
ADCP,ioos:station:wmo:42364:1,2010-01-18T07:00:00Z,29.0600,-88.0900,8.9,11111222 
ADCP,ioos:station:wmo:42364:1,2010-01-18T07:15:00Z,29.0600,-88.0900,8.9,11111222 
ADCP,ioos:station:wmo:42364:1,2010-01-18T07:30:00Z,29.0600,-88.0900,8.9,11111222 
ADCP,ioos:station:wmo:42364:1,2010-01-18T07:45:00Z,29.0600,-88.0900,8.9,11111222 
ADCP,ioos:station:wmo:42364:1,2010-01-18T08:00:00Z,29.0600,-88.0900,8.9,11111222 
ADCP,ioos:station:wmo:42364:1,2010-01-18T08:15:00Z,29.0600,-88.0900,8.9,11111222 
ADCP,ioos:station:wmo:42364:1,2010-01-18T08:30:00Z,29.0600,-88.0900,8.9,11111222 
ADCP,ioos:station:wmo:42364:1,2010-01-18T08:45:00Z,29.0600,-88.0900,8.9,11111222 
ADCP,ioos:station:wmo:42364:1,2010-01-18T09:00:00Z,29.0600,-88.0900,8.9,11111222 
ADCP,ioos:station:wmo:42364:1,2010-01-18T09:15:00Z,29.0600,-88.0900,9.4,11111222 
ADCP,ioos:station:wmo:42364:1,2010-01-18T09:30:00Z,29.0600,-88.0900,8.9,11111222 
ADCP,ioos:station:wmo:42364:1,2010-01-18T09:45:00Z,29.0600,-88.0900,8.9,11111222 
ADCP,ioos:station:wmo:42364:1,2010-01-18T10:00:00Z,29.0600,-88.0900,8.9,11111222 
ADCP,ioos:station:wmo:42364:1,2010-01-18T10:15:00Z,29.0600,-88.0900,9.4,11111222 
ADCP,ioos:station:wmo:42364:1,2010-01-18T10:30:00Z,29.0600,-88.0900,9.4,11111222 
ADCP,ioos:station:wmo:42364:1,2010-01-18T10:45:00Z,29.0600,-88.0900,9.4,11111222 
ADCP,ioos:station:wmo:42364:1,2010-01-18T11:00:00Z,29.0600,-88.0900,9.4,11111222 
ADCP,ioos:station:wmo:42364:1,2010-01-18T11:15:00Z,29.0600,-88.0900,8.9,11111222 
ADCP,ioos:station:wmo:42364:1,2010-01-18T11:30:00Z,29.0600,-88.0900,9.4,11111222 
ADCP,ioos:station:wmo:42364:1,2010-01-18T11:45:00Z,29.0600,-88.0900,9.4,11111222 
ADCP,ioos:station:wmo:42364:1,2010-01-18T12:00:00Z,29.0600,-88.0900,9.4,11111222 
ADCP,ioos:station:wmo:42364:1,2010-01-18T12:15:00Z,29.0600,-88.0900,9.4,11111222 
ADCP,ioos:station:wmo:42364:1,2010-01-18T12:30:00Z,29.0600,-88.0900,8.9,11111222 
ADCP,ioos:station:wmo:42364:1,2010-01-18T12:45:00Z,29.0600,-88.0900,9.4,11111222 
ADCP,ioos:station:wmo:42364:1,2010-01-18T13:00:00Z,29.0600,-88.0900,9.4,11111222 
ADCP,ioos:station:wmo:42364:1,2010-01-18T13:15:00Z,29.0600,-88.0900,9.4,11111222 
ADCP,ioos:station:wmo:42364:1,2010-01-18T13:30:00Z,29.0600,-88.0900,9.4,11111222 
ADCP,ioos:station:wmo:42364:1,2010-01-18T13:45:00Z,29.0600,-88.0900,9.4,11111222 
ADCP,ioos:station:wmo:42364:1,2010-01-18T14:00:00Z,29.0600,-88.0900,9.4,11111222 
ADCP,ioos:station:wmo:42364:1,2010-01-18T14:15:00Z,29.0600,-88.0900,9.4,11111222 
ADCP,ioos:station:wmo:42364:1,2010-01-18T14:30:00Z,29.0600,-88.0900,8.9,11111222 
ADCP,ioos:station:wmo:42364:1,2010-01-18T14:45:00Z,29.0600,-88.0900,8.9,11111222 
ADCP,ioos:station:wmo:42364:1,2010-01-18T15:00:00Z,29.0600,-88.0900,8.9,11111222 
ADCP,ioos:station:wmo:42364:1,2010-01-18T15:15:00Z,29.0600,-88.0900,8.9,11111222 
ADCP,ioos:station:wmo:42364:1,2010-01-18T15:30:00Z,29.0600,-88.0900,8.9,11111222 
ADCP,ioos:station:wmo:42364:1,2010-01-18T15:45:00Z,29.0600,-88.0900,8.9,11111222 
ADCP,ioos:station:wmo:42364:1,2010-01-18T16:00:00Z,29.0600,-88.0900,8.9,11111222 
ADCP,ioos:station:wmo:42364:1,2010-01-18T16:15:00Z,29.0600,-88.0900,8.9,11111222 
ADCP,ioos:station:wmo:42364:1,2010-01-18T16:30:00Z,29.0600,-88.0900,8.9,11111222 
ADCP,ioos:station:wmo:42364:1,2010-01-18T16:45:00Z,29.0600,-88.0900,8.9,11111222 
ADCP,ioos:station:wmo:42364:1,2010-01-18T17:00:00Z,29.0600,-88.0900,8.9,11111222 
ADCP,ioos:station:wmo:42364:1,2010-01-18T17:15:00Z,29.0600,-88.0900,8.9,11111222 
ADCP,ioos:station:wmo:42364:1,2010-01-18T17:30:00Z,29.0600,-88.0900,8.9,11111222 
ADCP,ioos:station:wmo:42364:1,2010-01-18T17:45:00Z,29.0600,-88.0900,8.9,11111222 
ADCP,ioos:station:wmo:42364:1,2010-01-18T18:00:00Z,29.0600,-88.0900,8.9,11111222 
ADCP,ioos:station:wmo:42364:1,2010-01-18T18:15:00Z,29.0600,-88.0900,8.9,11111222 
ADCP,ioos:station:wmo:42364:1,2010-01-18T18:30:00Z,29.0600,-88.0900,9.4,11111222 
ADCP,ioos:station:wmo:42364:1,2010-01-18T18:45:00Z,29.0600,-88.0900,9.4,11111222 
ADCP,ioos:station:wmo:42364:1,2010-01-18T19:00:00Z,29.0600,-88.0900,9.4,11111222 
ADCP,ioos:station:wmo:42364:1,2010-01-18T19:15:00Z,29.0600,-88.0900,9.4,11111222 
ADCP,ioos:station:wmo:42364:1,2010-01-18T19:30:00Z,29.0600,-88.0900,8.9,11111222 
ADCP,ioos:station:wmo:42364:1,2010-01-18T19:45:00Z,29.0600,-88.0900,9.4,11111222 
ADCP,ioos:station:wmo:42364:1,2010-01-18T20:00:00Z,29.0600,-88.0900,9.4,11111222 
ADCP,ioos:station:wmo:42364:1,2010-01-18T20:15:00Z,29.0600,-88.0900,9.4,11111222 
ADCP,ioos:station:wmo:42364:1,2010-01-18T20:30:00Z,29.0600,-88.0900,9.4,11111222 
ADCP,ioos:station:wmo:42364:1,2010-01-18T20:45:00Z,29.0600,-88.0900,9.4,11111222 
ADCP,ioos:station:wmo:42364:1,2010-01-18T21:00:00Z,29.0600,-88.0900,9.4,11111222 
ADCP,ioos:station:wmo:42364:1,2010-01-18T21:15:00Z,29.0600,-88.0900,8.9,11111222 
ADCP,ioos:station:wmo:42364:1,2010-01-18T21:30:00Z,29.0600,-88.0900,9.4,11111222 
ADCP,ioos:station:wmo:42364:1,2010-01-18T21:45:00Z,29.0600,-88.0900,9.4,11111222 
ADCP,ioos:station:wmo:42364:1,2010-01-18T22:00:00Z,29.0600,-88.0900,9.4,11111222 
ADCP,ioos:station:wmo:42364:1,2010-01-18T22:15:00Z,29.0600,-88.0900,9.4,11111222 
ADCP,ioos:station:wmo:42364:1,2010-01-18T22:30:00Z,29.0600,-88.0900,9.4,11111222 
ADCP,ioos:station:wmo:42364:1,2010-01-18T22:45:00Z,29.0600,-88.0900,10.0,11111222 
ADCP,ioos:station:wmo:42364:1,2010-01-18T23:00:00Z,29.0600,-88.0900,10.0,11111222 
ADCP,ioos:station:wmo:42364:1,2010-01-18T23:15:00Z,29.0600,-88.0900,10.0,11111222 
ADCP,ioos:station:wmo:42364:1,2010-01-18T23:30:00Z,29.0600,-88.0900,10.0,11111222 
ADCP,ioos:station:wmo:42364:1,2010-01-18T23:45:00Z,29.0600,-88.0900,10.0,11111222 
ADCP,ioos:station:wmo:42364:1,2010-01-19T00:00:00Z,29.0600,-88.0900,10.0,11111222 
ADCP,ioos:station:wmo:42364:1,2010-01-19T00:15:00Z,29.0600,-88.0900,10.0,11111222 
ADCP,ioos:station:wmo:42364:1,2010-01-19T00:30:00Z,29.0600,-88.0900,10.0,11111222 
ADCP,ioos:station:wmo:42364:1,2010-01-19T00:45:00Z,29.0600,-88.0900,10.0,11111222 
ADCP,ioos:station:wmo:42364:1,2010-01-19T01:00:00Z,29.0600,-88.0900,10.0,11111222 
ADCP,ioos:station:wmo:42364:1,2010-01-19T01:15:00Z,29.0600,-88.0900,10.0,11111222 
ADCP,ioos:station:wmo:42364:1,2010-01-19T01:30:00Z,29.0600,-88.0900,10.0,11111222 
ADCP,ioos:station:wmo:42364:1,2010-01-19T01:45:00Z,29.0600,-88.0900,10.0,11111222 
ADCP,ioos:station:wmo:42364:1,2010-01-19T02:00:00Z,29.0600,-88.0900,10.0,11111222 
ADCP,ioos:station:wmo:42364:1,2010-01-19T02:15:00Z,29.0600,-88.0900,10.0,11111222 
ADCP,ioos:station:wmo:42364:1,2010-01-19T02:30:00Z,29.0600,-88.0900,10.6,11111222 
ADCP,ioos:station:wmo:42364:1,2010-01-19T02:45:00Z,29.0600,-88.0900,10.6,11111222 
ADCP,ioos:station:wmo:42364:1,2010-01-19T03:00:00Z,29.0600,-88.0900,10.6,11111222 
ADCP,ioos:station:wmo:42364:1,2010-01-19T03:15:00Z,29.0600,-88.0900,10.6,11111222 
ADCP,ioos:station:wmo:42364:1,2010-01-19T03:30:00Z,29.0600,-88.0900,10.6,11111222 
ADCP,ioos:station:wmo:42364:1,2010-01-19T03:45:00Z,29.0600,-88.0900,10.6,11111222 
ADCP,ioos:station:wmo:42364:1,2010-01-19T04:00:00Z,29.0600,-88.0900,10.6,11111222 
ADCP,ioos:station:wmo:42364:1,2010-01-19T04:15:00Z,29.0600,-88.0900,10.6,11111222 
ADCP,ioos:station:wmo:42364:1,2010-01-19T04:30:00Z,29.0600,-88.0900,10.6,11111222 
ADCP,ioos:station:wmo:42364:1,2010-01-19T04:45:00Z,29.0600,-88.0900,10.6,11111222 
ADCP,ioos:station:wmo:42364:1,2010-01-19T05:00:00Z,29.0600,-88.0900,10.6,11111222 
ADCP,ioos:station:wmo:42364:1,2010-01-19T05:15:00Z,29.0600,-88.0900,10.6,11111222 
ADCP,ioos:station:wmo:42364:1,2010-01-19T05:30:00Z,29.0600,-88.0900,10.6,11111222 
ADCP,ioos:station:wmo:42364:1,2010-01-19T05:45:00Z,29.0600,-88.0900,10.6,11111222 
ADCP,ioos:station:wmo:42364:1,2010-01-19T06:00:00Z,29.0600,-88.0900,10.6,11111222 
ADCP,ioos:station:wmo:42364:1,2010-01-19T06:15:00Z,29.0600,-88.0900,10.6,11111222 
ADCP,ioos:station:wmo:42364:1,2010-01-19T06:30:00Z,29.0600,-88.0900,11.1,11111222 
ADCP,ioos:station:wmo:42364:1,2010-01-19T06:45:00Z,29.0600,-88.0900,10.6,11111222 
ADCP,ioos:station:wmo:42364:1,2010-01-19T07:00:00Z,29.0600,-88.0900,11.1,11111222 
ADCP,ioos:station:wmo:42364:1,2010-01-19T07:15:00Z,29.0600,-88.0900,10.6,11111222 
ADCP,ioos:station:wmo:42364:1,2010-01-19T07:30:00Z,29.0600,-88.0900,10.6,11111222 
ADCP,ioos:station:wmo:42364:1,2010-01-19T07:45:00Z,29.0600,-88.0900,10.6,11111222 
ADCP,ioos:station:wmo:42364:1,2010-01-19T08:00:00Z,29.0600,-88.0900,10.6,11111222 
ADCP,ioos:station:wmo:42364:1,2010-01-19T08:15:00Z,29.0600,-88.0900,10.6,11111222 
ADCP,ioos:station:wmo:42364:1,2010-01-19T08:30:00Z,29.0600,-88.0900,11.1,11111222 
ADCP,ioos:station:wmo:42364:1,2010-01-19T08:45:00Z,29.0600,-88.0900,10.6,11111222 
ADCP,ioos:station:wmo:42364:1,2010-01-19T09:00:00Z,29.0600,-88.0900,10.6,11111222 
ADCP,ioos:station:wmo:42364:1,2010-01-19T09:15:00Z,29.0600,-88.0900,10.6,11111222 
ADCP,ioos:station:wmo:42364:1,2010-01-19T09:30:00Z,29.0600,-88.0900,10.6,11111222 
ADCP,ioos:station:wmo:42364:1,2010-01-19T09:45:00Z,29.0600,-88.0900,11.1,11111222 
ADCP,ioos:station:wmo:42364:1,2010-01-19T10:00:00Z,29.0600,-88.0900,11.1,11111222 
ADCP,ioos:station:wmo:42364:1,2010-01-19T10:15:00Z,29.0600,-88.0900,11.1,11111222 
ADCP,ioos:station:wmo:42364:1,2010-01-19T10:30:00Z,29.0600,-88.0900,11.1,11111222 
ADCP,ioos:station:wmo:42364:1,2010-01-19T10:45:00Z,29.0600,-88.0900,11.1,11111222 
ADCP,ioos:station:wmo:42364:1,2010-01-19T11:00:00Z,29.0600,-88.0900,10.6,11111222 
ADCP,ioos:station:wmo:42364:1,2010-01-19T11:15:00Z,29.0600,-88.0900,10.6,11111222 
ADCP,ioos:station:wmo:42364:1,2010-01-19T11:30:00Z,29.0600,-88.0900,11.1,11111222 
ADCP,ioos:station:wmo:42364:1,2010-01-19T11:45:00Z,29.0600,-88.0900,11.7,11111222 
ADCP,ioos:station:wmo:42364:1,2010-01-19T12:00:00Z,29.0600,-88.0900,11.1,11111222 
ADCP,ioos:station:wmo:42364:1,2010-01-19T12:15:00Z,29.0600,-88.0900,11.1,11111222 
ADCP,ioos:station:wmo:42364:1,2010-01-19T12:30:00Z,29.0600,-88.0900,11.7,11111222 
ADCP,ioos:station:wmo:42364:1,2010-01-19T12:45:00Z,29.0600,-88.0900,11.7,11111222 
ADCP,ioos:station:wmo:42364:1,2010-01-19T13:00:00Z,29.0600,-88.0900,11.7,11111222 
ADCP,ioos:station:wmo:42364:1,2010-01-19T13:15:00Z,29.0600,-88.0900,11.7,11111222 
ADCP,ioos:station:wmo:42364:1,2010-01-19T13:30:00Z,29.0600,-88.0900,11.1,11111222 
ADCP,ioos:station:wmo:42364:1,2010-01-19T13:45:00Z,29.0600,-88.0900,11.1,11111222 
ADCP,ioos:station:wmo:42364:1,2010-01-19T14:00:00Z,29.0600,-88.0900,11.1,11111222 
ADCP,ioos:station:wmo:42364:1,2010-01-19T14:15:00Z,29.0600,-88.0900,11.1,11111222 
ADCP,ioos:station:wmo:42364:1,2010-01-19T14:30:00Z,29.0600,-88.0900,10.6,11111222 
ADCP,ioos:station:wmo:42364:1,2010-01-19T14:45:00Z,29.0600,-88.0900,11.1,11111222 
ADCP,ioos:station:wmo:42364:1,2010-01-19T15:00:00Z,29.0600,-88.0900,10.6,11111222 
ADCP,ioos:station:wmo:42364:1,2010-01-19T15:15:00Z,29.0600,-88.0900,10.6,11111222 
ADCP,ioos:station:wmo:42364:1,2010-01-19T15:30:00Z,29.0600,-88.0900,10.6,11111222 
ADCP,ioos:station:wmo:42364:1,2010-01-19T15:45:00Z,29.0600,-88.0900,10.6,11111222 
ADCP,ioos:station:wmo:42364:1,2010-01-19T16:00:00Z,29.0600,-88.0900,10.6,11111222 
ADCP,ioos:station:wmo:42364:1,2010-01-19T16:15:00Z,29.0600,-88.0900,10.0,11111222 
ADCP,ioos:station:wmo:42364:1,2010-01-19T16:30:00Z,29.0600,-88.0900,10.0,11111222 
ADCP,ioos:station:wmo:42364:1,2010-01-19T16:45:00Z,29.0600,-88.0900,10.0,11111222 
ADCP,ioos:station:wmo:42364:1,2010-01-19T17:00:00Z,29.0600,-88.0900,11.1,11111222 
ADCP,ioos:station:wmo:42364:1,2010-01-19T17:15:00Z,29.0600,-88.0900,11.1,11111222 
ADCP,ioos:station:wmo:42364:1,2010-01-19T17:30:00Z,29.0600,-88.0900,11.7,11111222 
ADCP,ioos:station:wmo:42364:1,2010-01-19T17:45:00Z,29.0600,-88.0900,11.7,11111222 
ADCP,ioos:station:wmo:42364:1,2010-01-19T18:00:00Z,29.0600,-88.0900,11.7,11111222 
ADCP,ioos:station:wmo:42364:1,2010-01-19T18:15:00Z,29.0600,-88.0900,11.7,11111222 
ADCP,ioos:station:wmo:42364:1,2010-01-19T18:30:00Z,29.0600,-88.0900,11.1,11111222 
ADCP,ioos:station:wmo:42364:1,2010-01-19T18:45:00Z,29.0600,-88.0900,11.1,11111222 
ADCP,ioos:station:wmo:42364:1,2010-01-19T19:00:00Z,29.0600,-88.0900,11.1,11111222 
ADCP,ioos:station:wmo:42364:1,2010-01-19T19:15:00Z,29.0600,-88.0900,11.1,11111222 
ADCP,ioos:station:wmo:42364:1,2010-01-19T19:30:00Z,29.0600,-88.0900,10.6,11111222 
ADCP,ioos:station:wmo:42364:1,2010-01-19T19:45:00Z,29.0600,-88.0900,10.6,11111222 
ADCP,ioos:station:wmo:42364:1,2010-01-19T20:00:00Z,29.0600,-88.0900,10.0,11111222 
ADCP,ioos:station:wmo:42364:1,2010-01-19T20:15:00Z,29.0600,-88.0900,10.6,11111222 
ADCP,ioos:station:wmo:42364:1,2010-01-19T20:30:00Z,29.0600,-88.0900,10.6,11111222 
ADCP,ioos:station:wmo:42364:1,2010-01-19T20:45:00Z,29.0600,-88.0900,10.0,11111222 
ADCP,ioos:station:wmo:42364:1,2010-01-19T21:00:00Z,29.0600,-88.0900,10.0,11111222 
ADCP,ioos:station:wmo:42364:1,2010-01-19T21:15:00Z,29.0600,-88.0900,10.6,11111222 
ADCP,ioos:station:wmo:42364:1,2010-01-19T21:30:00Z,29.0600,-88.0900,10.6,11111222 
ADCP,ioos:station:wmo:42364:1,2010-01-19T21:45:00Z,29.0600,-88.0900,10.6,11111222 
ADCP,ioos:station:wmo:42364:1,2010-01-19T22:00:00Z,29.0600,-88.0900,10.6,11111222 
ADCP,ioos:station:wmo:42364:1,2010-01-19T22:15:00Z,29.0600,-88.0900,10.6,11111222 
ADCP,ioos:station:wmo:42364:1,2010-01-19T22:30:00Z,29.0600,-88.0900,10.0,11111222 
ADCP,ioos:station:wmo:42364:1,2010-01-19T22:45:00Z,29.0600,-88.0900,10.6,11111222 
ADCP,ioos:station:wmo:42364:1,2010-01-19T23:00:00Z,29.0600,-88.0900,11.1,11111222 
ADCP,ioos:station:wmo:42364:1,2010-01-19T23:15:00Z,29.0600,-88.0900,12.2,11111222 
ADCP,ioos:station:wmo:42364:1,2010-01-19T23:30:00Z,29.0600,-88.0900,12.2,11111222 
ADCP,ioos:station:wmo:42364:1,2010-01-19T23:45:00Z,29.0600,-88.0900,12.8,11111222 
ADCP,ioos:station:wmo:42364:1,2010-01-20T00:00:00Z,29.0600,-88.0900,12.2,11111222 
ADCP,ioos:station:wmo:42364:1,2010-01-20T00:15:00Z,29.0600,-88.0900,12.2,11111222 
ADCP,ioos:station:wmo:42364:1,2010-01-20T00:30:00Z,29.0600,-88.0900,12.2,11111222 
ADCP,ioos:station:wmo:42364:1,2010-01-20T00:45:00Z,29.0600,-88.0900,12.8,11111222 
ADCP,ioos:station:wmo:42364:1,2010-01-20T01:00:00Z,29.0600,-88.0900,12.8,11111222 
ADCP,ioos:station:wmo:42364:1,2010-01-20T01:15:00Z,29.0600,-88.0900,12.8,11111222 
ADCP,ioos:station:wmo:42364:1,2010-01-20T01:30:00Z,29.0600,-88.0900,12.8,11111222 
ADCP,ioos:station:wmo:42364:1,2010-01-20T01:45:00Z,29.0600,-88.0900,13.3,11111222 
ADCP,ioos:station:wmo:42364:1,2010-01-20T02:00:00Z,29.0600,-88.0900,12.8,11111222 
ADCP,ioos:station:wmo:42364:1,2010-01-20T02:15:00Z,29.0600,-88.0900,12.8,11111222 
ADCP,ioos:station:wmo:42364:1,2010-01-20T02:30:00Z,29.0600,-88.0900,13.3,11111222 
ADCP,ioos:station:wmo:42364:1,2010-01-20T02:45:00Z,29.0600,-88.0900,13.3,11111222 
ADCP,ioos:station:wmo:42364:1,2010-01-20T03:00:00Z,29.0600,-88.0900,13.3,11111222 
ADCP,ioos:station:wmo:42364:1,2010-01-20T03:15:00Z,29.0600,-88.0900,13.3,11111222 
ADCP,ioos:station:wmo:42364:1,2010-01-20T03:30:00Z,29.0600,-88.0900,13.3,11111222 
ADCP,ioos:station:wmo:42364:1,2010-01-20T03:45:00Z,29.0600,-88.0900,13.3,11111222 
ADCP,ioos:station:wmo:42364:1,2010-01-20T04:00:00Z,29.0600,-88.0900,13.9,11111222 
ADCP,ioos:station:wmo:42364:1,2010-01-20T04:15:00Z,29.0600,-88.0900,13.3,11111222 
ADCP,ioos:station:wmo:42364:1,2010-01-20T04:30:00Z,29.0600,-88.0900,13.9,11111222 
ADCP,ioos:station:wmo:42364:1,2010-01-20T04:45:00Z,29.0600,-88.0900,13.3,11111222 
ADCP,ioos:station:wmo:42364:1,2010-01-20T05:00:00Z,29.0600,-88.0900,13.9,11111222 
ADCP,ioos:station:wmo:42364:1,2010-01-20T05:15:00Z,29.0600,-88.0900,13.9,11111222 
ADCP,ioos:station:wmo:42364:1,2010-01-20T05:30:00Z,29.0600,-88.0900,13.9,11111222 
ADCP,ioos:station:wmo:42364:1,2010-01-20T05:45:00Z,29.0600,-88.0900,13.9,11111222 
ADCP,ioos:station:wmo:42364:1,2010-01-20T06:00:00Z,29.0600,-88.0900,13.9,11111222 
ADCP,ioos:station:wmo:42364:1,2010-01-20T06:15:00Z,29.0600,-88.0900,14.4,11111222 
ADCP,ioos:station:wmo:42364:1,2010-01-20T06:30:00Z,29.0600,-88.0900,14.4,11111222 
ADCP,ioos:station:wmo:42364:1,2010-01-20T06:45:00Z,29.0600,-88.0900,14.4,11111222 
ADCP,ioos:station:wmo:42364:1,2010-01-20T07:00:00Z,29.0600,-88.0900,15.0,11111222 
ADCP,ioos:station:wmo:42364:1,2010-01-20T07:15:00Z,29.0600,-88.0900,15.0,11111222 
ADCP,ioos:station:wmo:42364:1,2010-01-20T07:30:00Z,29.0600,-88.0900,15.0,11111222 
ADCP,ioos:station:wmo:42364:1,2010-01-20T07:45:00Z,29.0600,-88.0900,15.0,11111222 
ADCP,ioos:station:wmo:42364:1,2010-01-20T08:00:00Z,29.0600,-88.0900,15.6,11111222 
ADCP,ioos:station:wmo:42364:1,2010-01-20T08:15:00Z,29.0600,-88.0900,15.6,11111222 
ADCP,ioos:station:wmo:42364:1,2010-01-20T08:30:00Z,29.0600,-88.0900,16.1,11111222 
ADCP,ioos:station:wmo:42364:1,2010-01-20T08:45:00Z,29.0600,-88.0900,16.1,11111222 
ADCP,ioos:station:wmo:42364:1,2010-01-20T09:00:00Z,29.0600,-88.0900,16.7,11111222 
ADCP,ioos:station:wmo:42364:1,2010-01-20T09:15:00Z,29.0600,-88.0900,16.7,11111222 
ADCP,ioos:station:wmo:42364:1,2010-01-20T09:30:00Z,29.0600,-88.0900,16.7,11111222 
ADCP,ioos:station:wmo:42364:1,2010-01-20T09:45:00Z,29.0600,-88.0900,17.2,11111222 
ADCP,ioos:station:wmo:42364:1,2010-01-20T10:00:00Z,29.0600,-88.0900,17.2,11111222 
ADCP,ioos:station:wmo:42364:1,2010-01-20T10:15:00Z,29.0600,-88.0900,17.2,11111222 
ADCP,ioos:station:wmo:42364:1,2010-01-20T10:30:00Z,29.0600,-88.0900,17.2,11111222 
ADCP,ioos:station:wmo:42364:1,2010-01-20T10:45:00Z,29.0600,-88.0900,17.2,11111222 
ADCP,ioos:station:wmo:42364:1,2010-01-20T11:00:00Z,29.0600,-88.0900,17.2,11111222 
ADCP,ioos:station:wmo:42364:1,2010-01-20T11:15:00Z,29.0600,-88.0900,17.2,11111222 
ADCP,ioos:station:wmo:42364:1,2010-01-20T11:30:00Z,29.0600,-88.0900,17.8,11111222 
ADCP,ioos:station:wmo:42364:1,2010-01-20T11:45:00Z,29.0600,-88.0900,17.8,11111222 
ADCP,ioos:station:wmo:42364:1,2010-01-20T12:00:00Z,29.0600,-88.0900,17.8,11111222 
ADCP,ioos:station:wmo:42364:1,2010-01-20T12:15:00Z,29.0600,-88.0900,17.8,11111222 
ADCP,ioos:station:wmo:42364:1,2010-01-20T12:30:00Z,29.0600,-88.0900,17.8,11111222 
ADCP,ioos:station:wmo:42364:1,2010-01-20T12:45:00Z,29.0600,-88.0900,17.8,11111222 
ADCP,ioos:station:wmo:42364:1,2010-01-20T13:00:00Z,29.0600,-88.0900,17.8,11111222 
ADCP,ioos:station:wmo:42364:1,2010-01-20T14:15:00Z,29.0600,-88.0900,18.3,11111222 
ADCP,ioos:station:wmo:42364:1,2010-01-20T14:30:00Z,29.0600,-88.0900,18.3,11111222 
ADCP,ioos:station:wmo:42364:1,2010-01-20T22:30:00Z,29.0600,-88.0900,18.3,11111222 
ADCP,ioos:station:wmo:42364:1,2010-01-20T22:45:00Z,29.0600,-88.0900,18.3,11111222 
ADCP,ioos:station:wmo:42364:1,2010-01-20T23:00:00Z,29.0600,-88.0900,18.3,11111222 
ADCP,ioos:station:wmo:42364:1,2010-01-20T23:15:00Z,29.0600,-88.0900,18.9,11111222 
ADCP,ioos:station:wmo:42364:1,2010-01-20T23:30:00Z,29.0600,-88.0900,18.3,11111222 
ADCP,ioos:station:wmo:42364:1,2010-01-20T23:45:00Z,29.0600,-88.0900,18.3,11111222 
ADCP,ioos:station:wmo:42364:1,2010-01-21T00:00:00Z,29.0600,-88.0900,18.9,11111222 
ADCP,ioos:station:wmo:42364:1,2010-01-21T00:15:00Z,29.0600,-88.0900,18.9,11111222 
ADCP,ioos:station:wmo:42364:1,2010-01-21T00:30:00Z,29.0600,-88.0900,18.9,11111222 
ADCP,ioos:station:wmo:42364:1,2010-01-21T00:45:00Z,29.0600,-88.0900,18.9,11111222 
ADCP,ioos:station:wmo:42364:1,2010-01-21T01:00:00Z,29.0600,-88.0900,18.9,11111222 
ADCP,ioos:station:wmo:42364:1,2010-01-21T01:15:00Z,29.0600,-88.0900,18.9,11111222 
ADCP,ioos:station:wmo:42364:1,2010-01-21T01:30:00Z,29.0600,-88.0900,18.9,11111222 
ADCP,ioos:station:wmo:42364:1,2010-01-21T01:45:00Z,29.0600,-88.0900,18.9,11111222 
ADCP,ioos:station:wmo:42364:1,2010-01-21T02:00:00Z,29.0600,-88.0900,18.9,11111222 
ADCP,ioos:station:wmo:42364:1,2010-01-21T02:15:00Z,29.0600,-88.0900,18.9,11111222 
ADCP,ioos:station:wmo:42364:1,2010-01-21T02:30:00Z,29.0600,-88.0900,18.9,11111222 
ADCP,ioos:station:wmo:42364:1,2010-01-21T02:45:00Z,29.0600,-88.0900,18.9,11111222 
ADCP,ioos:station:wmo:42364:1,2010-01-21T03:00:00Z,29.0600,-88.0900,18.9,11111222 
ADCP,ioos:station:wmo:42364:1,2010-01-21T03:15:00Z,29.0600,-88.0900,18.9,11111222 
ADCP,ioos:station:wmo:42364:1,2010-01-21T03:30:00Z,29.0600,-88.0900,19.4,11111222 
ADCP,ioos:station:wmo:42364:1,2010-01-21T03:45:00Z,29.0600,-88.0900,19.4,11111222 
ADCP,ioos:station:wmo:42364:1,2010-01-21T04:00:00Z,29.0600,-88.0900,19.4,11111222 
ADCP,ioos:station:wmo:42364:1,2010-01-21T04:15:00Z,29.0600,-88.0900,19.4,11111222 
ADCP,ioos:station:wmo:42364:1,2010-01-21T04:30:00Z,29.0600,-88.0900,19.4,11111222 
ADCP,ioos:station:wmo:42364:1,2010-01-21T04:45:00Z,29.0600,-88.0900,19.4,11111222 
ADCP,ioos:station:wmo:42364:1,2010-01-21T05:00:00Z,29.0600,-88.0900,19.4,11111222 
ADCP,ioos:station:wmo:42364:1,2010-01-21T05:15:00Z,29.0600,-88.0900,19.4,11111222 
ADCP,ioos:station:wmo:42364:1,2010-01-21T05:30:00Z,29.0600,-88.0900,19.4,11111222 
ADCP,ioos:station:wmo:42364:1,2010-01-21T05:45:00Z,29.0600,-88.0900,20.0,11111222 
ADCP,ioos:station:wmo:42364:1,2010-01-21T06:00:00Z,29.0600,-88.0900,20.0,11111222 
ADCP,ioos:station:wmo:42364:1,2010-01-21T06:15:00Z,29.0600,-88.0900,20.0,11111222 
ADCP,ioos:station:wmo:42364:1,2010-01-21T06:30:00Z,29.0600,-88.0900,20.0,11111222 